Weather in Galaasiya

Uzbekistan     39°51′29″N   64°26′50″E
temp.,
°C
wind,
m/s
gust,
m/s
humid.,
%
clouds,
%
prec.,
mm/h
press.,
hPa
HPBL,
m
25 january, mon
mon2523:00+2nne4661100 0.0 1030116
02:00+1nne4657100 0.0 1029108
05:00+1nne465893 0.0 1028107
08:000nne69580 0.0 1029185
11:00+4ne58497 0.0 1029442
14:00+7ene453884 0.0 1028646
17:00+7n454592 0.0 1028446
20:00+3nne696262 0.0 1029220
26 january, tue
tue2623:00+2nne566531 0.0 1029126
02:00+1nne33650 0.0 102855
05:00+1ene23700 0.0 102833
08:00+1e23700 0.0 102937
11:00+5se34530 0.0 1028309
14:00+7sse23420 0.0 1026617
17:00+8ese22390 0.0 1026523
20:00+5e11510 0.0 102722
27 january, wed
wed2723:00+4n11550 0.0 102622
02:00+4nne34560 0.0 102731
05:00+3n34580 0.0 102644
08:00+2n45600 0.0 102764
11:00+6nne34450 0.0 1027185
14:00+10n22320 0.0 1026485
17:00+11n34300 0.0 1025642
20:00+7n45420 0.0 1026114
28 january, thu
thu2823:00+5n34510 0.0 102672
02:00+4n33530 0.0 102640
05:00+3ne12500 0.0 102522
08:00+2se33560 0.0 102628
11:00+7e34410 0.0 1026264
14:00+10ese23320 0.0 1024515
17:00+11ese22290 0.0 1023555
20:00+8e22380 0.0 102422
29 january, fri
fri2923:00+6e23400 0.0 102522
02:00+6e34420 0.0 102425
05:00+5ese34440 0.0 102430
08:00+4ese45430 0.0 102371
11:00+9ese57260 0.0 1023273
14:00+14ese68160 0.0 1020553
17:00+15ese610160 0.0 1018445
20:00+11ese592537 0.0 1018139